Change the Weather History Date:

Monday, May 20, 2013

  Actual Average Record
Temperature  
Mean Temperature 77 °F 71 °F  
Max Temperature 87 °F 82 °F 94 °F (2005)
Min Temperature 67 °F 60 °F 43 °F (1981)
Degree Days  
Heating Degree Days 0 0  
Month to date heating degree days 69 21  
Since 1 July heating degree days 3050 3042  
Cooling Degree Days 12 6  
Month to date cooling degree days 65 87  
Year to date cooling degree days 125 134  
Growing Degree Days 28 (Base 50)    
Moisture  
Dew Point 68 °F    
Average Humidity 71    
Maximum Humidity 84    
Minimum Humidity 57    
Precipitation  
Precipitation 0.00 in 0.16 in 2.60 in (1903)
Month to date precipitation 2.19 4.07  
Year to date precipitation 9.47 19.64  
Snow  
Snow 0.00 in - - ()
Month to date snowfall 0.0  
Since 1 July snowfall 4.5  
Snow Depth 0.00 in    
Sea Level Pressure  
Sea Level Pressure 29.79 in    
Wind  
Wind Speed 7 mph (South)    
Max Wind Speed 20 mph    
Max Gust Speed 28 mph    
Visibility 9 miles    
Events      
T = Trace of Precipitation, MM = Missing Value Source: NWS Daily Summary

Daily Weather History Graph

Daily Weather History Graph

Search for Another Location

Airport or City:

Trip Planner

Search our weather history database for the weather conditions in past years. The results will help you decide how hot, cold, wet, or windy it might be!

Date:

Astronomy

May. 20, 2013 Rise Set
Actual Time 6:12 AM CDT 8:16 PM CDT
Civil Twilight 5:44 AM CDT 8:44 PM CDT
Nautical Twilight 5:10 AM CDT 9:18 PM CDT
Astronomical Twilight 4:33 AM CDT 9:55 PM CDT
Moon 3:36 PM CDT (5/20) 2:54 AM CDT (5/20)
Length of Visible Light 14h 59m
Length of Day
14h 03m
Waxing Gibbous, 75% of the Moon is Illuminated
May 20
Waxing Gibbous
May 24
Full
May 31
Last Quarter
Jun 8
New
Jun 16
First Quarter

Hourly Weather History & Observations

Time (CDT) Temp. Heat Index Dew Point Humidity Pressure Visibility Wind Dir Wind Speed Gust Speed Precip Events Conditions
12:53 AM 77.0 °F - 66.9 °F 71% 29.78 in 10.0 mi Variable 5.8 mph 17.3 mph N/A   Clear
1:53 AM 75.9 °F - 66.9 °F 74% 29.78 in 10.0 mi South 5.8 mph - N/A   Clear
3:09 AM 75.0 °F - 66.9 °F 76% 29.80 in 10.0 mi SSW 4.6 mph - N/A   Mostly Cloudy
3:53 AM 75.0 °F - 66.9 °F 76% 29.79 in 10.0 mi Variable 5.8 mph - N/A   Overcast
4:53 AM 73.9 °F - 66.9 °F 79% 29.80 in 10.0 mi SSW 5.8 mph - N/A   Overcast
7:53 AM 73.9 °F - 68.0 °F 82% 29.86 in 7.0 mi SSE 5.8 mph - N/A   Overcast
8:53 AM 75.0 °F - 68.0 °F 79% 29.86 in 8.0 mi South 6.9 mph - N/A   Overcast
9:53 AM 77.0 °F - 69.1 °F 76% 29.86 in 8.0 mi South 9.2 mph 18.4 mph N/A   Mostly Cloudy
10:53 AM 80.1 °F 82.9 °F 69.1 °F 69% 29.85 in 8.0 mi South 13.8 mph 19.6 mph N/A   Overcast
11:53 AM 80.1 °F 83.2 °F 70.0 °F 71% 29.84 in 8.0 mi SSW 9.2 mph - N/A   Overcast
1:53 PM 84.0 °F 87.8 °F 69.1 °F 61% 29.81 in 7.0 mi SSW 10.4 mph 19.6 mph N/A   Mostly Cloudy
2:53 PM 86.0 °F 90.1 °F 69.1 °F 57% 29.78 in 8.0 mi South 10.4 mph 20.7 mph N/A   Scattered Clouds
3:53 PM 84.9 °F 89.4 °F 70.0 °F 61% 29.74 in 7.0 mi South 9.2 mph 19.6 mph N/A   Mostly Cloudy
4:53 PM 84.9 °F 88.8 °F 69.1 °F 59% 29.73 in 8.0 mi South 10.4 mph 17.3 mph N/A   Mostly Cloudy
5:53 PM 84.9 °F 88.8 °F 69.1 °F 59% 29.72 in 8.0 mi South 9.2 mph - N/A   Scattered Clouds
6:53 PM 82.9 °F 86.5 °F 69.1 °F 63% 29.71 in 9.0 mi South 5.8 mph - N/A   Clear
7:53 PM 82.0 °F 85.5 °F 69.1 °F 65% 29.73 in 10.0 mi Calm Calm - N/A   Partly Cloudy
8:53 PM 78.1 °F - 72.0 °F 81% 29.75 in 10.0 mi Calm Calm - N/A   Mostly Cloudy
9:53 PM 77.0 °F - 72.0 °F 84% 29.78 in 10.0 mi Calm Calm - N/A   Mostly Cloudy
10:53 PM 69.1 °F - 63.0 °F 81% 29.84 in 10.0 mi NE 6.9 mph - 0.00 in   Overcast
11:53 PM 68.0 °F - 63.0 °F 84% 29.83 in 10.0 mi East 6.9 mph - N/A   Mostly Cloudy